Location: Colossi of Memnon
(25.7167°N, 32.6167°E)
Time: 04:19:54
(UTC+00:00)

H-2A R/B - Pass Details

Date: 05 March 2021
Orbit: 187 x 15374 km, 31.9° (Epoch: 10 April)

Event Time Altitude Azimuth Distance (km) Brightness Sun altitude
Rises 23:23:20 0° 242° (WSW) 20,853 9.0 -62.2°
Reaches altitude 10° 00:03:09 10° 247° (WSW) 17,631 8.5 -54.8°
Enters shadow 00:14:30 14° 248° (WSW) 16,134 8.3 -52.6°
Exits shadow 01:08:49 64° 271° (W) 3,890 5.1 -41.1°
Maximum altitude 01:13:03 80° 341° (NNW) 2,817 4.5 -40.2°
Drops below altitude 10° 01:21:29 10° 69° (ENE) 3,224 5.9 -38.3°
Sets 01:22:59 0° 71° (ENE) 3,705 6.5 -38.0°
